Location: *
(50.2903°S, 172.5375°W)
Time: 15:51:49
(UTC+00:00)

Resurs 1-4 Rocket - Pass Details

Date: 29 February 2020
Orbit: 800 x 814 km, 98.6° (Epoch: 04 April)

Event Time Altitude Azimuth Distance (km) Brightness Sun altitude
Exits shadow 11:15:53 37° 129° (SE) 1,261 3.2 -31.7°
Drops below altitude 10° 11:20:15 10° 182° (S) 2,419 5.4 -31.8°
Sets 11:22:45 0° 189° (S) 3,356 6.5 -31.9°
